Racecast

SPARC Complex

Difficulty:i +11.6% (5000m, the usual distance here) · 119 results · 119 athletes

All 5000m

Distances raced here

DistanceDifficultyiResults FirstLast
5000m +11.6% 119 2025-10-04 2025-10-04

Best speed ratings all distances

Boys

#AthleteRatingi TimeDistSchoolDate
1 Luke Sly 128.6 17:42.2 5000m Jefferson Area (OH) 2025-10-04
2 Garret Tracy 128.1 17:46.2 5000m Ash. Edgewood (OH) 2025-10-04
3 Sam Steimle 125.4 18:09.1 5000m Grand Valley (OH) 2025-10-04
4 Carter Cline 120.1 18:57.4 5000m Ash. Edgewood (OH) 2025-10-04
5 Reece Kovach 119.2 19:06 5000m Ash. Edgewood (OH) 2025-10-04
6 John Cline 119.0 19:07.8 5000m Ash. Edgewood (OH) 2025-10-04
7 Joalexander Sanchez 117.4 19:23.3 5000m Geneva (IL) 2025-10-04
8 Ethan VanNorman 116.1 19:36.3 5000m Conneaut (OH) 2025-10-04
9 Robert Knox 115.3 19:44.3 5000m Ash. Edgewood (OH) 2025-10-04
10 Preston Hitchcock 114.1 19:56.3 5000m Jefferson Area (OH) 2025-10-04
11 Jacob Dean 112.5 20:13.8 5000m Pymatuning Valley (OH) 2025-10-04
12 Hamilton Spero 111.7 20:23 5000m Conneaut (OH) 2025-10-04
13 Justin Summers 111.5 20:24.3 5000m Pymatuning Valley (OH) 2025-10-04
14 Kooper Newhart 111.1 20:28.6 5000m Jefferson Area (OH) 2025-10-04
15 Ayden Kelley 111.0 20:30.5 5000m Ash. St. John (OH) 2025-10-04
16 Marcus Lebzelter 110.2 20:38.9 5000m Ash. Edgewood (OH) 2025-10-04
17 John Cybulski 110.0 20:41.4 5000m Geneva (IL) 2025-10-04
18 Elliott Tobie 109.8 20:43.1 5000m Ash. Edgewood (OH) 2025-10-04
19 Mercer Mcdonald 109.5 20:47.6 5000m Lakeside (CA) 2025-10-04
20 Christian Barbian 108.5 20:58.3 5000m Ash. St. John (OH) 2025-10-04
21 Samuel Mazzei 108.1 21:02.9 5000m Grand Valley (OH) 2025-10-04
22 John D'Alessandro 107.0 21:15.8 5000m Geneva (IL) 2025-10-04
23 Ethan Schenk 106.0 21:28.7 5000m Geneva (IL) 2025-10-04
24 Jaydon Rossi 104.0 21:52.8 5000m Jefferson Area (OH) 2025-10-04
25 Blake Dickey 103.6 21:58 5000m Jefferson Area (OH) 2025-10-04
26 Alexzander Gersin 103.2 22:03.1 5000m Geneva (IL) 2025-10-04
27 Rhys Smoley 101.9 22:20.1 5000m Grand Valley (OH) 2025-10-04
28 Camden Dwyer 101.7 22:23.4 5000m Jefferson Area (OH) 2025-10-04
29 Daniel Phillips 101.5 22:26 5000m Ash. St. John (OH) 2025-10-04
30 Gunnar Maenpaa 100.9 22:33.7 5000m Conneaut (OH) 2025-10-04
31 Isaac Weaver 100.1 22:43.8 5000m Ash. Edgewood (OH) 2025-10-04
32 Ashton Sanden 99.4 22:54.3 5000m Conneaut (OH) 2025-10-04
33 Justin Powell 99.1 22:57.6 5000m Grand Valley (OH) 2025-10-04
34 Bradley Chitwood 99.1 22:58.5 5000m Grand Valley (OH) 2025-10-04
35 Wakiem Hunter 98.0 23:14 5000m Lakeside (CA) 2025-10-04
36 Corey Taylor 97.1 23:26.1 5000m Conneaut (OH) 2025-10-04
37 Daniel Simonsen 96.4 23:36.9 5000m Conneaut (OH) 2025-10-04
38 Richard Balog 96.3 23:38 5000m Geneva (IL) 2025-10-04
39 Marcin Knapik 95.5 23:49.4 5000m Pymatuning Valley (OH) 2025-10-04
40 Elijah Guyton 95.4 23:51.4 5000m Ash. Edgewood (OH) 2025-10-04
41 Damien Anderson 95.2 23:53.7 5000m Geneva (IL) 2025-10-04
42 Brennan Bush 92.6 24:35.2 5000m Ash. Edgewood (OH) 2025-10-04
43 Carson Reed 92.3 24:39.7 5000m Jefferson Area (OH) 2025-10-04
44 Jackson Sanzo 92.0 24:44.3 5000m Geneva (IL) 2025-10-04
45 Justin Benn 91.5 24:53.2 5000m Ash. Edgewood (OH) 2025-10-04
46 Corban Shaffer 91.0 25:00.3 5000m Lakeside (CA) 2025-10-04
47 Ben Brand 91.0 25:01.2 5000m Jefferson Area (OH) 2025-10-04
48 Gavin Furman 90.8 25:03.7 5000m Jefferson Area (OH) 2025-10-04
49 Joseph Ortiz 88.0 25:51.9 5000m Geneva (IL) 2025-10-04
50 Aidan Smith 87.1 26:07.6 5000m Pymatuning Valley (OH) 2025-10-04
51 Davin Dresnik 87.0 26:10.1 5000m Jefferson Area (OH) 2025-10-04
52 Ty Bates 86.9 26:11.3 5000m Pymatuning Valley (OH) 2025-10-04
53 Connor Schwartz 85.7 26:32.6 5000m Grand Valley (OH) 2025-10-04
54 Cameron Wade 82.2 27:40.1 5000m Grand Valley (OH) 2025-10-04
55 Landon Linehan 80.1 28:25.4 5000m Ash. St. John (OH) 2025-10-04
56 Javier Cruz 73.5 30:57 5000m Lakeside (CA) 2025-10-04
57 Braden Morris 68.7 33:07.1 5000m Grand Valley (OH) 2025-10-04
58 Ben Zaebst 66.5 34:11.8 5000m Pymatuning Valley (OH) 2025-10-04
59 Lincoln Severino 64.4 35:20.4 5000m Ash. St. John (OH) 2025-10-04

View all →

Girls

#AthleteRatingi TimeDistSchoolDate
1 Marlee Beacom 130.7 20:57.2 5000m Ash. St. John (OH) 2025-10-04
2 Grace Dzura 129.3 21:11 5000m Jefferson Area (OH) 2025-10-04
3 Emma Phillips 123.7 22:07.7 5000m Ash. St. John (OH) 2025-10-04
4 Anna Ring 115.9 23:37 5000m Conneaut (OH) 2025-10-04
5 Malena Gottwig 111.0 24:39.6 5000m Ash. St. John (OH) 2025-10-04
6 Mara Gilman 108.3 25:17.6 5000m Jefferson Area (OH) 2025-10-04
7 Stellaluna Madrigal 107.3 25:31.7 5000m Ash. St. John (OH) 2025-10-04
8 Riley Andrusis 106.5 25:42.6 5000m Geneva (IL) 2025-10-04
9 Oliva Knight 104.8 26:06.9 5000m Lakeside (CA) 2025-10-04
10 Akira Nagata 104.4 26:13 5000m Geneva (IL) 2025-10-04
11 Caidence Mate 104.1 26:18.7 5000m Grand Valley (OH) 2025-10-04
12 Meadow Wood 103.7 26:23.7 5000m Conneaut (OH) 2025-10-04
13 Grace Andrus 103.3 26:30.2 5000m Geneva (IL) 2025-10-04
14 Jenna Hitchcock 103.2 26:31.4 5000m Jefferson Area (OH) 2025-10-04
15 Emma Call 103.1 26:33.3 5000m Ash. St. John (OH) 2025-10-04
16 Charlotte Hart 103.0 26:35.2 5000m Geneva (IL) 2025-10-04
17 Sienna Gearhart-Johnston 102.7 26:39.2 5000m Geneva (IL) 2025-10-04
18 Taylor Noce 102.6 26:41.3 5000m Geneva (IL) 2025-10-04
19 Lissy Rosales 101.8 26:53.3 5000m Geneva (IL) 2025-10-04
20 Elise Kummer 101.6 26:57.3 5000m Ash. St. John (OH) 2025-10-04
21 AnnaMae Walter 101.6 26:57.7 5000m Lakeside (CA) 2025-10-04
22 Paytton Lemponen 101.4 27:00.8 5000m Geneva (IL) 2025-10-04
23 Reese Nims 99.4 27:32.9 5000m Grand Valley (OH) 2025-10-04
24 Riley Michalski 98.2 27:52.6 5000m Geneva (IL) 2025-10-04
25 Eliana Dials 97.4 28:06.4 5000m Geneva (IL) 2025-10-04
26 Sofia Park 97.2 28:10.5 5000m Ash. St. John (OH) 2025-10-04
27 Gillian Kapala 97.1 28:11.6 5000m Geneva (IL) 2025-10-04
28 Pauline Nuger 95.8 28:34.7 5000m Ash. Edgewood (OH) 2025-10-04
29 McKenzie Warner 95.7 28:36.1 5000m Conneaut (OH) 2025-10-04
30 Kylee Portzer 95.5 28:39.4 5000m Grand Valley (OH) 2025-10-04
31 Selena Park 95.2 28:46.2 5000m Ash. St. John (OH) 2025-10-04
32 Audrey Bellas 95.1 28:46.9 5000m Jefferson Area (OH) 2025-10-04
33 Jeenah Palmer 94.3 29:01.6 5000m Geneva (IL) 2025-10-04
34 Olivia Chase 94.2 29:03.7 5000m Conneaut (OH) 2025-10-04
35 Olivia Conaway 93.5 29:17.8 5000m Jefferson Area (OH) 2025-10-04
36 Kamryn Nims 92.7 29:31.9 5000m Grand Valley (OH) 2025-10-04
37 Isabella Baker 92.3 29:39.4 5000m Geneva (IL) 2025-10-04
38 Sophia Marcin 91.4 29:56.7 5000m Pymatuning Valley (OH) 2025-10-04
39 Annaliese Martone 91.0 30:04.3 5000m Lakeside (CA) 2025-10-04
40 Jenna Scarniench 90.8 30:09 5000m Ash. Edgewood (OH) 2025-10-04
41 Rian Jenkins 89.7 30:31.1 5000m Pymatuning Valley (OH) 2025-10-04
42 Addison Prusinski 88.5 30:57.3 5000m Jefferson Area (OH) 2025-10-04
43 Aurora Bellas 87.3 31:22.6 5000m Jefferson Area (OH) 2025-10-04
44 Ella Nieset 86.8 31:33.8 5000m Geneva (IL) 2025-10-04
45 Destiny Harrington 86.5 31:38.3 5000m Pymatuning Valley (OH) 2025-10-04
46 Ella Park 86.5 31:39.2 5000m Geneva (IL) 2025-10-04
47 Ashlyn Dickey 85.2 32:09.3 5000m Jefferson Area (OH) 2025-10-04
48 Yanialys Rivera 84.4 32:26.8 5000m Ash. St. John (OH) 2025-10-04
49 Izzy Aughinbaugh 83.1 32:56.5 5000m Ash. St. John (OH) 2025-10-04
50 Chessa Hedenberg 81.6 33:33.5 5000m Grand Valley (OH) 2025-10-04
51 Lillian Hobe 81.0 33:47.3 5000m Ash. St. John (OH) 2025-10-04
52 Azaria Diaz 80.4 34:03 5000m Ash. Edgewood (OH) 2025-10-04
53 Sophia Tobie 75.8 36:08.3 5000m Ash. Edgewood (OH) 2025-10-04
54 Chloe Dwyer 74.2 36:55.3 5000m Jefferson Area (OH) 2025-10-04
55 Caliana Boland 72.6 37:43 5000m Geneva (IL) 2025-10-04
56 Brooklyn Wiles 71.2 38:25.7 5000m Grand Valley (OH) 2025-10-04
57 Cadence Raymond 70.2 38:58.7 5000m Ash. St. John (OH) 2025-10-04
58 Josie Dunham 65.6 41:43.5 5000m Conneaut (OH) 2025-10-04
59 Mayah Stone 64.7 42:19.3 5000m Ash. Edgewood (OH) 2025-10-04

View all →

Best team performances by rating top-5 average rating, one race, all distances

Boys

#SchoolTop-5 avg DistMeetDate
1 Ash. Edgewood (OH) 120.3 5000m Ashtabula County Cross Country Championships 2025-10-04
2 Jefferson Area (OH) 112.3 5000m Ashtabula County Cross Country Championships 2025-10-04
3 Geneva (IL) 108.7 5000m Ashtabula County Cross Country Championships 2025-10-04
4 Grand Valley (OH) 106.7 5000m Ashtabula County Cross Country Championships 2025-10-04
5 Conneaut (OH) 105.0 5000m Ashtabula County Cross Country Championships 2025-10-04
6 Pymatuning Valley (OH) 98.7 5000m Ashtabula County Cross Country Championships 2025-10-04
7 Ash. St. John (OH) 93.1 5000m Ashtabula County Cross Country Championships 2025-10-04

View all →

Girls

#SchoolTop-5 avg DistMeetDate
1 Ash. St. John (OH) 115.2 5000m Ashtabula County Cross Country Championships 2025-10-04
2 Jefferson Area (OH) 105.9 5000m Ashtabula County Cross Country Championships 2025-10-04
3 Geneva (IL) 104.0 5000m Ashtabula County Cross Country Championships 2025-10-04
4 Conneaut (OH) 95.1 5000m Ashtabula County Cross Country Championships 2025-10-04
5 Grand Valley (OH) 94.7 5000m Ashtabula County Cross Country Championships 2025-10-04
6 Ash. Edgewood (OH) 81.5 5000m Ashtabula County Cross Country Championships 2025-10-04

View all →

Meets held here all distances

MeetLast heldDistanceResults
Ashtabula County Cross Country Championships 2025-10-04 5000 119

View all →